Year,Month,Day,Hour,Minute,Value (Times are PST for temperature in C)
2017,05,28,00,00,15.30
2017,05,28,00,01,15.30
2017,05,28,00,02,15.30
2017,05,28,00,03,15.30
2017,05,28,00,04,15.30
2017,05,28,00,05,15.30
2017,05,28,00,06,15.30
2017,05,28,00,07,15.30
2017,05,28,00,08,15.30
2017,05,28,00,09,15.30
2017,05,28,00,10,15.30
2017,05,28,00,11,15.30
2017,05,28,00,12,15.20
2017,05,28,00,13,15.20
2017,05,28,00,14,15.10
2017,05,28,00,15,15.10
2017,05,28,00,16,15.00
2017,05,28,00,17,15.00
2017,05,28,00,18,15.00
2017,05,28,00,19,15.00
2017,05,28,00,20,14.90
2017,05,28,00,21,14.90
2017,05,28,00,22,14.90
2017,05,28,00,23,14.80
2017,05,28,00,24,14.80
2017,05,28,00,25,14.80
2017,05,28,00,26,14.80
2017,05,28,00,27,14.70
2017,05,28,00,28,14.70
2017,05,28,00,29,14.70
2017,05,28,00,30,14.70
2017,05,28,00,31,14.60
2017,05,28,00,32,14.60
2017,05,28,00,33,14.60
2017,05,28,00,34,14.60
2017,05,28,00,35,14.60
2017,05,28,00,36,14.50
2017,05,28,00,37,14.50
2017,05,28,00,38,14.40
2017,05,28,00,39,14.40
2017,05,28,00,40,14.30
2017,05,28,00,41,14.30
2017,05,28,00,42,14.30
2017,05,28,00,43,14.20
2017,05,28,00,44,14.10
2017,05,28,00,45,14.10
2017,05,28,00,46,14.00
2017,05,28,00,47,13.90
2017,05,28,00,48,13.80
2017,05,28,00,49,13.80
2017,05,28,00,50,13.70
2017,05,28,00,51,13.60
2017,05,28,00,52,13.60
2017,05,28,00,53,13.60
2017,05,28,00,54,13.60
2017,05,28,00,55,13.50
2017,05,28,00,56,13.50
2017,05,28,00,57,13.50
2017,05,28,00,58,13.50
2017,05,28,00,59,13.50
2017,05,28,01,00,13.50
2017,05,28,01,01,13.50
2017,05,28,01,02,13.50
2017,05,28,01,03,13.50
2017,05,28,01,04,13.40
2017,05,28,01,05,13.40
2017,05,28,01,06,13.40
2017,05,28,01,07,13.40
2017,05,28,01,08,13.40
2017,05,28,01,09,13.40
2017,05,28,01,10,13.30
2017,05,28,01,11,13.30
2017,05,28,01,12,13.30
2017,05,28,01,13,13.30
2017,05,28,01,14,13.30
2017,05,28,01,15,13.20
2017,05,28,01,16,13.20
2017,05,28,01,17,13.20
2017,05,28,01,18,13.20
2017,05,28,01,19,13.20
2017,05,28,01,20,13.20
2017,05,28,01,21,13.20
2017,05,28,01,22,13.10
2017,05,28,01,23,13.10
2017,05,28,01,24,13.10
2017,05,28,01,25,13.10
2017,05,28,01,26,13.10
2017,05,28,01,27,13.10
2017,05,28,01,28,13.00
2017,05,28,01,29,13.00
2017,05,28,01,30,13.00
2017,05,28,01,31,12.90
2017,05,28,01,32,12.90
2017,05,28,01,33,12.90
2017,05,28,01,34,12.90
2017,05,28,01,35,12.90
2017,05,28,01,36,12.80
2017,05,28,01,37,12.80
2017,05,28,01,38,12.80
2017,05,28,01,39,12.80
2017,05,28,01,40,12.80
2017,05,28,01,41,12.80
2017,05,28,01,42,12.80
2017,05,28,01,43,12.80
2017,05,28,01,44,12.80
2017,05,28,01,45,12.80
2017,05,28,01,46,12.80
2017,05,28,01,47,12.80
2017,05,28,01,48,12.80
2017,05,28,01,49,12.80
2017,05,28,01,50,12.80
2017,05,28,01,51,12.90
2017,05,28,01,52,12.90
2017,05,28,01,53,13.00
2017,05,28,01,54,13.00
2017,05,28,01,55,13.10
2017,05,28,01,56,13.10
2017,05,28,01,57,13.10
2017,05,28,01,58,13.10
2017,05,28,01,59,13.10
2017,05,28,02,00,13.10
2017,05,28,02,01,13.10
2017,05,28,02,02,13.10
2017,05,28,02,03,13.00
2017,05,28,02,04,13.00
2017,05,28,02,05,13.00
2017,05,28,02,06,12.90
2017,05,28,02,07,12.90
2017,05,28,02,08,12.90
2017,05,28,02,09,12.80
2017,05,28,02,10,12.80
2017,05,28,02,11,12.80
2017,05,28,02,12,12.80
2017,05,28,02,13,12.70
2017,05,28,02,14,12.70
2017,05,28,02,15,12.70
2017,05,28,02,16,12.70
2017,05,28,02,17,12.60
2017,05,28,02,18,12.60
2017,05,28,02,19,12.60
2017,05,28,02,20,12.50
2017,05,28,02,21,12.50
2017,05,28,02,22,12.50
2017,05,28,02,23,12.40
2017,05,28,02,24,12.40
2017,05,28,02,25,12.40
2017,05,28,02,26,12.40
2017,05,28,02,27,12.40
2017,05,28,02,28,12.40
2017,05,28,02,29,12.40
2017,05,28,02,30,12.40
2017,05,28,02,31,12.40
2017,05,28,02,32,12.40
2017,05,28,02,33,12.40
2017,05,28,02,34,12.40
2017,05,28,02,35,12.40
2017,05,28,02,36,12.40
2017,05,28,02,37,12.30
2017,05,28,02,38,12.30
2017,05,28,02,39,12.30
2017,05,28,02,40,12.30
2017,05,28,02,41,12.30
2017,05,28,02,42,12.30
2017,05,28,02,43,12.30
2017,05,28,02,44,12.20
2017,05,28,02,45,12.20
2017,05,28,02,46,12.20
2017,05,28,02,47,12.20
2017,05,28,02,48,12.20
2017,05,28,02,49,12.30
2017,05,28,02,50,12.30
2017,05,28,02,51,12.30
2017,05,28,02,52,12.30
2017,05,28,02,53,12.30
2017,05,28,02,54,12.40
2017,05,28,02,55,12.40
2017,05,28,02,56,12.40
2017,05,28,02,57,12.40
2017,05,28,02,58,12.40
2017,05,28,02,59,12.40
2017,05,28,03,00,12.30
2017,05,28,03,01,12.30
2017,05,28,03,02,12.30
2017,05,28,03,03,12.20
2017,05,28,03,04,12.20
2017,05,28,03,05,12.20
2017,05,28,03,06,12.10
2017,05,28,03,07,12.10
2017,05,28,03,08,12.10
2017,05,28,03,09,12.10
2017,05,28,03,10,12.00
2017,05,28,03,11,12.00
2017,05,28,03,12,12.00
2017,05,28,03,13,11.90
2017,05,28,03,14,11.90
2017,05,28,03,15,11.90
2017,05,28,03,16,11.90
2017,05,28,03,17,11.90
2017,05,28,03,18,11.90
2017,05,28,03,19,11.90
2017,05,28,03,20,11.90
2017,05,28,03,21,11.90
2017,05,28,03,22,11.90
2017,05,28,03,23,11.80
2017,05,28,03,24,11.80
2017,05,28,03,25,11.80
2017,05,28,03,26,11.80
2017,05,28,03,27,11.80
2017,05,28,03,28,11.70
2017,05,28,03,29,11.70
2017,05,28,03,30,11.70
2017,05,28,03,31,11.70
2017,05,28,03,32,11.60
2017,05,28,03,33,11.60
2017,05,28,03,34,11.50
2017,05,28,03,35,11.50
2017,05,28,03,36,11.50
2017,05,28,03,37,11.50
2017,05,28,03,38,11.40
2017,05,28,03,39,11.40
2017,05,28,03,40,11.40
2017,05,28,03,41,11.40
2017,05,28,03,42,11.40
2017,05,28,03,43,11.40
2017,05,28,03,44,11.30
2017,05,28,03,45,11.30
2017,05,28,03,46,11.30
2017,05,28,03,47,11.30
2017,05,28,03,48,11.30
2017,05,28,03,49,11.30
2017,05,28,03,50,11.20
2017,05,28,03,51,11.30
2017,05,28,03,52,11.20
2017,05,28,03,53,11.30
2017,05,28,03,54,11.20
2017,05,28,03,55,11.30
2017,05,28,03,56,11.30
2017,05,28,03,57,11.30
2017,05,28,03,58,11.20
2017,05,28,03,59,11.20
2017,05,28,04,00,11.20
2017,05,28,04,01,11.20
2017,05,28,04,02,11.20
2017,05,28,04,03,11.20
2017,05,28,04,04,11.20
2017,05,28,04,05,11.20
2017,05,28,04,06,11.20
2017,05,28,04,07,11.20
2017,05,28,04,08,11.10
2017,05,28,04,09,11.10
2017,05,28,04,10,11.10
2017,05,28,04,11,11.10
2017,05,28,04,12,11.10
2017,05,28,04,13,11.10
2017,05,28,04,14,11.10
2017,05,28,04,15,11.10
2017,05,28,04,16,11.10
2017,05,28,04,17,11.10
2017,05,28,04,18,11.10
2017,05,28,04,19,11.10
2017,05,28,04,20,11.00
2017,05,28,04,21,11.00
2017,05,28,04,22,11.00
2017,05,28,04,23,11.00
2017,05,28,04,24,11.00
2017,05,28,04,25,11.00
2017,05,28,04,26,11.00
2017,05,28,04,27,11.00
2017,05,28,04,28,11.00
2017,05,28,04,29,11.00
2017,05,28,04,30,10.90
2017,05,28,04,31,10.90
2017,05,28,04,32,10.90
2017,05,28,04,33,10.90
2017,05,28,04,34,10.90
2017,05,28,04,35,10.90
2017,05,28,04,36,10.90
2017,05,28,04,37,10.90
2017,05,28,04,38,10.90
2017,05,28,04,39,10.90
2017,05,28,04,40,10.90
2017,05,28,04,41,10.80
2017,05,28,04,42,10.80
2017,05,28,04,43,10.80
2017,05,28,04,44,10.80
2017,05,28,04,45,10.80
2017,05,28,04,46,10.80
2017,05,28,04,47,10.80
2017,05,28,04,48,10.80
2017,05,28,04,49,10.70
2017,05,28,04,50,10.70
2017,05,28,04,51,10.70
2017,05,28,04,52,10.70
2017,05,28,04,53,10.70
2017,05,28,04,54,10.60
2017,05,28,04,55,10.60
2017,05,28,04,56,10.60
2017,05,28,04,57,10.60
2017,05,28,04,58,10.60
2017,05,28,04,59,10.60
2017,05,28,05,00,10.60
2017,05,28,05,01,10.60
2017,05,28,05,02,10.50
2017,05,28,05,03,10.60
2017,05,28,05,04,10.60
2017,05,28,05,05,10.60
2017,05,28,05,06,10.60
2017,05,28,05,07,10.60
2017,05,28,05,08,10.60
2017,05,28,05,09,10.60
2017,05,28,05,10,10.60
2017,05,28,05,11,10.60
2017,05,28,05,12,10.50
2017,05,28,05,13,10.50
2017,05,28,05,14,10.50
2017,05,28,05,15,10.50
2017,05,28,05,16,10.50
2017,05,28,05,17,10.60
2017,05,28,05,18,10.60
2017,05,28,05,19,10.70
2017,05,28,05,20,10.70
2017,05,28,05,21,10.70
2017,05,28,05,22,10.70
2017,05,28,05,23,10.70
2017,05,28,05,24,10.70
2017,05,28,05,25,10.70
2017,05,28,05,26,10.70
2017,05,28,05,27,10.70
2017,05,28,05,28,10.70
2017,05,28,05,29,10.70
2017,05,28,05,30,10.70
2017,05,28,05,31,10.70
2017,05,28,05,32,10.70
2017,05,28,05,33,10.70
2017,05,28,05,34,10.70
2017,05,28,05,35,10.70
2017,05,28,05,36,10.70
2017,05,28,05,37,10.70
2017,05,28,05,38,10.70
2017,05,28,05,39,10.70
2017,05,28,05,40,10.70
2017,05,28,05,41,10.70
2017,05,28,05,42,10.70
2017,05,28,05,43,10.70
2017,05,28,05,44,10.80
2017,05,28,05,45,10.80
2017,05,28,05,46,10.80
2017,05,28,05,47,10.90
2017,05,28,05,48,10.90
2017,05,28,05,49,11.00
2017,05,28,05,50,11.00
2017,05,28,05,51,11.10
2017,05,28,05,52,11.10
2017,05,28,05,53,11.20
2017,05,28,05,54,11.20
2017,05,28,05,55,11.30
2017,05,28,05,56,11.30
2017,05,28,05,57,11.30
2017,05,28,05,58,11.40
2017,05,28,05,59,11.50
2017,05,28,06,00,11.50
2017,05,28,06,01,11.60
2017,05,28,06,02,11.60
2017,05,28,06,03,11.70
2017,05,28,06,04,11.70
2017,05,28,06,05,11.70
2017,05,28,06,06,11.70
2017,05,28,06,07,11.80
2017,05,28,06,08,11.80
2017,05,28,06,09,11.90
2017,05,28,06,10,11.90
2017,05,28,06,11,12.00
2017,05,28,06,12,12.10
2017,05,28,06,13,12.10
2017,05,28,06,14,12.10
2017,05,28,06,15,12.20
2017,05,28,06,16,12.30
2017,05,28,06,17,12.30
2017,05,28,06,18,12.40
2017,05,28,06,19,12.40
2017,05,28,06,20,12.50
2017,05,28,06,21,12.50
2017,05,28,06,22,12.60
2017,05,28,06,23,12.70
2017,05,28,06,24,12.70
2017,05,28,06,25,12.80
2017,05,28,06,26,12.90
2017,05,28,06,27,13.00
2017,05,28,06,28,13.10
2017,05,28,06,29,13.20
2017,05,28,06,30,13.30
2017,05,28,06,31,13.40
2017,05,28,06,32,13.50
2017,05,28,06,33,13.60
2017,05,28,06,34,13.70
2017,05,28,06,35,13.80
2017,05,28,06,36,13.90
2017,05,28,06,37,13.90
2017,05,28,06,38,13.90
2017,05,28,06,39,14.00
2017,05,28,06,40,14.00
2017,05,28,06,41,14.10
2017,05,28,06,42,14.10
2017,05,28,06,43,14.20
2017,05,28,06,44,14.20
2017,05,28,06,45,14.20
2017,05,28,06,46,14.20
2017,05,28,06,47,14.30
2017,05,28,06,48,14.30
2017,05,28,06,49,14.40
2017,05,28,06,50,14.50
2017,05,28,06,51,14.50
2017,05,28,06,52,14.60
2017,05,28,06,53,14.70
2017,05,28,06,54,14.90
2017,05,28,06,55,15.00
2017,05,28,06,56,15.10
2017,05,28,06,57,15.10
2017,05,28,06,58,15.20
2017,05,28,06,59,15.20
2017,05,28,07,00,15.20
2017,05,28,07,01,15.20
2017,05,28,07,02,15.20
2017,05,28,07,03,15.20
2017,05,28,07,04,15.20
2017,05,28,07,05,15.20
2017,05,28,07,06,15.20
2017,05,28,07,07,15.20
2017,05,28,07,08,15.20
2017,05,28,07,09,15.20
2017,05,28,07,10,15.20
2017,05,28,07,11,15.20
2017,05,28,07,12,15.30
2017,05,28,07,13,15.30
2017,05,28,07,14,15.30
2017,05,28,07,15,15.30
2017,05,28,07,16,15.30
2017,05,28,07,17,15.30
2017,05,28,07,18,15.40
2017,05,28,07,19,15.40
2017,05,28,07,20,15.40
2017,05,28,07,21,15.50
2017,05,28,07,22,15.50
2017,05,28,07,23,15.60
2017,05,28,07,24,15.60
2017,05,28,07,25,15.60
2017,05,28,07,26,15.70
2017,05,28,07,27,15.70
2017,05,28,07,28,15.70
2017,05,28,07,29,15.70
2017,05,28,07,30,15.70
2017,05,28,07,31,15.70
2017,05,28,07,32,15.80
2017,05,28,07,33,15.80
2017,05,28,07,34,15.80
2017,05,28,07,35,15.90
2017,05,28,07,36,15.90
2017,05,28,07,37,15.90
2017,05,28,07,38,15.90
2017,05,28,07,39,16.00
2017,05,28,07,40,16.00
2017,05,28,07,41,16.10
2017,05,28,07,42,16.10
2017,05,28,07,43,16.20
2017,05,28,07,44,16.30
2017,05,28,07,45,16.30
2017,05,28,07,46,16.40
2017,05,28,07,47,16.60
2017,05,28,07,48,16.70
2017,05,28,07,49,16.70
2017,05,28,07,50,16.80
2017,05,28,07,51,16.80
2017,05,28,07,52,16.90
2017,05,28,07,53,17.00
2017,05,28,07,54,17.00
2017,05,28,07,55,17.10
2017,05,28,07,56,17.20
2017,05,28,07,57,17.20
2017,05,28,07,58,17.30
2017,05,28,07,59,17.30
2017,05,28,08,00,17.40
2017,05,28,08,01,17.40
2017,05,28,08,02,17.50
2017,05,28,08,03,17.50
2017,05,28,08,04,17.60
2017,05,28,08,05,17.60
2017,05,28,08,06,17.60
2017,05,28,08,07,17.60
2017,05,28,08,08,17.50
2017,05,28,08,09,17.40
2017,05,28,08,10,17.30
2017,05,28,08,11,17.30
2017,05,28,08,12,17.30
2017,05,28,08,13,17.20
2017,05,28,08,14,17.20
2017,05,28,08,15,17.20
2017,05,28,08,16,17.10
2017,05,28,08,17,17.10
2017,05,28,08,18,17.10
2017,05,28,08,19,17.10
2017,05,28,08,20,17.00
2017,05,28,08,21,16.90
2017,05,28,08,22,16.90
2017,05,28,08,23,16.90
2017,05,28,08,24,16.90
2017,05,28,08,25,16.90
2017,05,28,08,26,16.90
2017,05,28,08,27,16.90
2017,05,28,08,28,16.90
2017,05,28,08,29,16.90
2017,05,28,08,30,16.90
2017,05,28,08,31,16.90
2017,05,28,08,32,17.00
2017,05,28,08,33,17.00
2017,05,28,08,34,17.00
2017,05,28,08,35,16.90
2017,05,28,08,36,16.80
2017,05,28,08,37,16.80
2017,05,28,08,38,16.70
2017,05,28,08,39,16.70
2017,05,28,08,40,16.80
2017,05,28,08,41,16.80
2017,05,28,08,42,16.80
2017,05,28,08,43,16.80
2017,05,28,08,44,16.90
2017,05,28,08,45,16.90
2017,05,28,08,46,16.90
2017,05,28,08,47,16.90
2017,05,28,08,48,16.90
2017,05,28,08,49,17.00
2017,05,28,08,50,17.00
2017,05,28,08,51,17.10
2017,05,28,08,52,17.10
2017,05,28,08,53,17.20
2017,05,28,08,54,17.20
2017,05,28,08,55,17.20
2017,05,28,08,56,17.20
2017,05,28,08,57,17.10
2017,05,28,08,58,17.10
2017,05,28,08,59,17.10
2017,05,28,09,00,17.10
2017,05,28,09,01,17.20
2017,05,28,09,02,17.20
2017,05,28,09,03,17.30
2017,05,28,09,04,17.30
2017,05,28,09,05,17.30
2017,05,28,09,06,17.30
2017,05,28,09,07,17.30
2017,05,28,09,08,17.40
2017,05,28,09,09,17.40
2017,05,28,09,10,17.50
2017,05,28,09,11,17.60
2017,05,28,09,12,17.70
2017,05,28,09,13,17.70
2017,05,28,09,14,17.70
2017,05,28,09,15,17.80
2017,05,28,09,16,17.80
2017,05,28,09,17,17.80
2017,05,28,09,18,17.90
2017,05,28,09,19,17.90
2017,05,28,09,20,18.00
2017,05,28,09,21,18.00
2017,05,28,09,22,18.10
2017,05,28,09,23,18.30
2017,05,28,09,24,18.40
2017,05,28,09,25,18.50
2017,05,28,09,26,18.70
2017,05,28,09,27,18.80
2017,05,28,09,28,19.00
2017,05,28,09,29,19.00
2017,05,28,09,30,19.00
2017,05,28,09,31,19.10
2017,05,28,09,32,19.20
2017,05,28,09,33,19.30
2017,05,28,09,34,19.30
2017,05,28,09,35,19.50
2017,05,28,09,36,19.60
2017,05,28,09,37,19.70
2017,05,28,09,38,19.70
2017,05,28,09,39,19.70
2017,05,28,09,40,19.70
2017,05,28,09,41,19.70
2017,05,28,09,42,19.70
2017,05,28,09,43,19.70
2017,05,28,09,44,19.80
2017,05,28,09,45,19.80
2017,05,28,09,46,19.80
2017,05,28,09,47,19.70
2017,05,28,09,48,19.70
2017,05,28,09,49,19.70
2017,05,28,09,50,19.70
2017,05,28,09,51,19.60
2017,05,28,09,52,19.60
2017,05,28,09,53,19.60
2017,05,28,09,54,19.60
2017,05,28,09,55,19.50
2017,05,28,09,56,19.40
2017,05,28,09,57,19.30
2017,05,28,09,58,19.30
2017,05,28,09,59,19.30
2017,05,28,10,00,19.40
2017,05,28,10,01,19.50
2017,05,28,10,02,19.60
2017,05,28,10,03,19.70
2017,05,28,10,04,19.80
2017,05,28,10,05,19.80
2017,05,28,10,06,19.70
2017,05,28,10,07,19.70
2017,05,28,10,08,19.70
2017,05,28,10,09,19.70
2017,05,28,10,10,19.80
2017,05,28,10,11,19.80
2017,05,28,10,12,19.90
2017,05,28,10,13,20.00
2017,05,28,10,14,20.10
2017,05,28,10,15,20.10
2017,05,28,10,16,20.10
2017,05,28,10,17,20.20
2017,05,28,10,18,20.20
2017,05,28,10,19,20.20
2017,05,28,10,20,20.20
2017,05,28,10,21,20.20
2017,05,28,10,22,20.10
2017,05,28,10,23,20.00
2017,05,28,10,24,19.90
2017,05,28,10,25,19.90
2017,05,28,10,26,20.00
2017,05,28,10,27,20.00
2017,05,28,10,28,20.10
2017,05,28,10,29,20.10
2017,05,28,10,30,20.10
2017,05,28,10,31,20.20
2017,05,28,10,32,20.30
2017,05,28,10,33,20.30
2017,05,28,10,34,20.40
2017,05,28,10,35,20.60
2017,05,28,10,36,20.70
2017,05,28,10,37,20.80
2017,05,28,10,38,20.90
2017,05,28,10,39,21.00
2017,05,28,10,40,21.10
2017,05,28,10,41,21.00
2017,05,28,10,42,20.90
2017,05,28,10,43,20.80
2017,05,28,10,44,20.80
2017,05,28,10,45,20.90
2017,05,28,10,46,20.80
2017,05,28,10,47,20.80
2017,05,28,10,48,20.80
2017,05,28,10,49,20.80
2017,05,28,10,50,20.90
2017,05,28,10,51,20.90
2017,05,28,10,52,20.80
2017,05,28,10,53,20.80
2017,05,28,10,54,20.80
2017,05,28,10,55,20.70
2017,05,28,10,56,20.60
2017,05,28,10,57,20.60
2017,05,28,10,58,20.60
2017,05,28,10,59,20.50
2017,05,28,11,00,20.50
2017,05,28,11,01,20.40
2017,05,28,11,02,20.50
2017,05,28,11,03,20.60
2017,05,28,11,04,20.70
2017,05,28,11,05,20.70
2017,05,28,11,06,20.80
2017,05,28,11,07,20.90
2017,05,28,11,08,20.90
2017,05,28,11,09,20.90
2017,05,28,11,10,20.90
2017,05,28,11,11,20.80
2017,05,28,11,12,20.90
2017,05,28,11,13,20.90
2017,05,28,11,14,20.90
2017,05,28,11,15,21.00
2017,05,28,11,16,21.10
2017,05,28,11,17,21.10
2017,05,28,11,18,21.00
2017,05,28,11,19,20.90
2017,05,28,11,20,20.80
2017,05,28,11,21,20.80
2017,05,28,11,22,20.80
2017,05,28,11,23,20.80
2017,05,28,11,24,20.80
2017,05,28,11,25,20.80
2017,05,28,11,26,20.80
2017,05,28,11,27,20.80
2017,05,28,11,28,20.80
2017,05,28,11,29,20.90
2017,05,28,11,30,20.90
2017,05,28,11,31,20.80
2017,05,28,11,32,20.90
2017,05,28,11,33,20.90
2017,05,28,11,34,20.90
2017,05,28,11,35,20.80
2017,05,28,11,36,20.80
2017,05,28,11,37,20.80
2017,05,28,11,38,20.80
2017,05,28,11,39,20.80
2017,05,28,11,40,20.90
2017,05,28,11,41,20.90
2017,05,28,11,42,21.10
2017,05,28,11,43,21.20
2017,05,28,11,44,21.30
2017,05,28,11,45,21.40
2017,05,28,11,46,21.60
2017,05,28,11,47,21.80
2017,05,28,11,48,21.70
2017,05,28,11,49,21.70
2017,05,28,11,50,21.70
2017,05,28,11,51,21.80
2017,05,28,11,52,21.80
2017,05,28,11,53,21.70
2017,05,28,11,54,21.60
2017,05,28,11,55,21.40
2017,05,28,11,56,21.20
2017,05,28,11,57,20.90
2017,05,28,11,58,20.70
2017,05,28,11,59,20.40
2017,05,28,12,00,20.10
2017,05,28,12,01,19.80
2017,05,28,12,02,19.50
2017,05,28,12,03,19.30
2017,05,28,12,04,19.10
2017,05,28,12,05,19.00
2017,05,28,12,06,19.10
2017,05,28,12,07,19.20
2017,05,28,12,08,19.30
2017,05,28,12,09,19.30
2017,05,28,12,10,19.40
2017,05,28,12,11,19.50
2017,05,28,12,12,19.70
2017,05,28,12,13,19.80
2017,05,28,12,14,19.80
2017,05,28,12,15,19.60
2017,05,28,12,16,19.50
2017,05,28,12,17,19.50
2017,05,28,12,18,19.40
2017,05,28,12,19,19.40
2017,05,28,12,20,19.50
2017,05,28,12,21,19.70
2017,05,28,12,22,19.90
2017,05,28,12,23,20.00
2017,05,28,12,24,20.00
2017,05,28,12,25,19.90
2017,05,28,12,26,19.90
2017,05,28,12,27,19.90
2017,05,28,12,28,20.00
2017,05,28,12,29,20.00
2017,05,28,12,30,20.10
2017,05,28,12,31,20.20
2017,05,28,12,32,20.20
2017,05,28,12,33,20.30
2017,05,28,12,34,20.30
2017,05,28,12,35,20.30
2017,05,28,12,36,20.40
2017,05,28,12,37,20.50
2017,05,28,12,38,20.70
2017,05,28,12,39,20.80
2017,05,28,12,40,20.70
2017,05,28,12,41,20.50
2017,05,28,12,42,20.50
2017,05,28,12,43,20.50
2017,05,28,12,44,20.50
2017,05,28,12,45,20.50
2017,05,28,12,46,20.60
2017,05,28,12,47,20.70
2017,05,28,12,48,20.80
2017,05,28,12,49,20.90
2017,05,28,12,50,21.00
2017,05,28,12,51,21.10
2017,05,28,12,52,21.20
2017,05,28,12,53,21.20
2017,05,28,12,54,21.20
2017,05,28,12,55,21.20
2017,05,28,12,56,21.30
2017,05,28,12,57,21.30
2017,05,28,12,58,21.40
2017,05,28,12,59,21.40
2017,05,28,13,00,21.50
2017,05,28,13,01,21.60
2017,05,28,13,02,21.60
2017,05,28,13,03,21.60
2017,05,28,13,04,21.50
2017,05,28,13,05,21.30
2017,05,28,13,06,21.00
2017,05,28,13,07,20.90
2017,05,28,13,08,20.80
2017,05,28,13,09,20.80
2017,05,28,13,10,20.70
2017,05,28,13,11,20.80
2017,05,28,13,12,20.90
2017,05,28,13,13,20.90
2017,05,28,13,14,21.10
2017,05,28,13,15,21.10
2017,05,28,13,16,21.10
2017,05,28,13,17,21.20
2017,05,28,13,18,21.30
2017,05,28,13,19,21.30
2017,05,28,13,20,21.40
2017,05,28,13,21,21.50
2017,05,28,13,22,21.60
2017,05,28,13,23,21.80
2017,05,28,13,24,22.00
2017,05,28,13,25,22.20
2017,05,28,13,26,22.40
2017,05,28,13,27,22.50
2017,05,28,13,28,22.50
2017,05,28,13,29,22.50
2017,05,28,13,30,22.50
2017,05,28,13,31,22.50
2017,05,28,13,32,22.60
2017,05,28,13,33,22.60
2017,05,28,13,34,22.50
2017,05,28,13,35,22.50
2017,05,28,13,36,22.50
2017,05,28,13,37,22.70
2017,05,28,13,38,22.80
2017,05,28,13,39,23.00
2017,05,28,13,40,23.10
2017,05,28,13,41,23.10
2017,05,28,13,42,23.10
2017,05,28,13,43,23.20
2017,05,28,13,44,23.30
2017,05,28,13,45,23.50
2017,05,28,13,46,23.60
2017,05,28,13,47,23.60
2017,05,28,13,48,23.60
2017,05,28,13,49,23.60
2017,05,28,13,50,23.50
2017,05,28,13,51,23.40
2017,05,28,13,52,23.40
2017,05,28,13,53,23.30
2017,05,28,13,54,23.30
2017,05,28,13,55,23.10
2017,05,28,13,56,23.10
2017,05,28,13,57,23.00
2017,05,28,13,58,22.90
2017,05,28,13,59,22.80
2017,05,28,14,00,22.80
2017,05,28,14,01,22.90
2017,05,28,14,02,22.80
2017,05,28,14,03,22.80
2017,05,28,14,04,22.90
2017,05,28,14,05,23.00
2017,05,28,14,06,23.20
2017,05,28,14,07,23.30
2017,05,28,14,08,23.20
2017,05,28,14,09,23.10
2017,05,28,14,10,23.10
2017,05,28,14,11,23.10
2017,05,28,14,12,23.20
2017,05,28,14,13,23.30
2017,05,28,14,14,23.30
2017,05,28,14,15,23.40
2017,05,28,14,16,23.50
2017,05,28,14,17,23.60
2017,05,28,14,18,23.70
2017,05,28,14,19,23.70
2017,05,28,14,20,23.60
2017,05,28,14,21,23.50
2017,05,28,14,22,23.50
2017,05,28,14,23,23.50
2017,05,28,14,24,23.50
2017,05,28,14,25,23.30
2017,05,28,14,26,23.00
2017,05,28,14,27,22.80
2017,05,28,14,28,22.60
2017,05,28,14,29,22.30
2017,05,28,14,30,22.30
2017,05,28,14,31,22.10
2017,05,28,14,32,22.00
2017,05,28,14,33,21.80
2017,05,28,14,34,21.80
2017,05,28,14,35,21.80
2017,05,28,14,36,21.90
2017,05,28,14,37,22.00
2017,05,28,14,38,22.10
2017,05,28,14,39,22.20
2017,05,28,14,40,22.20
2017,05,28,14,41,22.30
2017,05,28,14,42,22.40
2017,05,28,14,43,22.50
2017,05,28,14,44,22.60
2017,05,28,14,45,22.70
2017,05,28,14,46,22.60
2017,05,28,14,47,22.30
2017,05,28,14,48,22.10
2017,05,28,14,49,21.90
2017,05,28,14,50,21.80
2017,05,28,14,51,21.70
2017,05,28,14,52,21.60
2017,05,28,14,53,21.50
2017,05,28,14,54,21.60
2017,05,28,14,55,21.60
2017,05,28,14,56,21.80
2017,05,28,14,57,21.90
2017,05,28,14,58,22.00
2017,05,28,14,59,22.10
2017,05,28,15,00,22.20
2017,05,28,15,01,22.30
2017,05,28,15,02,22.30
2017,05,28,15,03,22.30
2017,05,28,15,04,22.20
2017,05,28,15,05,22.10
2017,05,28,15,06,22.10
2017,05,28,15,07,22.10
2017,05,28,15,08,22.20
2017,05,28,15,09,22.30
2017,05,28,15,10,22.40
2017,05,28,15,11,22.60
2017,05,28,15,12,22.70
2017,05,28,15,13,22.80
2017,05,28,15,14,23.00
2017,05,28,15,15,23.10
2017,05,28,15,16,23.20
2017,05,28,15,17,23.30
2017,05,28,15,18,23.30
2017,05,28,15,19,23.30
2017,05,28,15,20,23.30
2017,05,28,15,21,23.40
2017,05,28,15,22,23.40
2017,05,28,15,23,23.50
2017,05,28,15,24,23.60
2017,05,28,15,25,23.70
2017,05,28,15,26,23.80
2017,05,28,15,27,23.80
2017,05,28,15,28,23.80
2017,05,28,15,29,23.80
2017,05,28,15,30,23.80
2017,05,28,15,31,23.90
2017,05,28,15,32,23.90
2017,05,28,15,33,23.90
2017,05,28,15,34,23.80
2017,05,28,15,35,23.80
2017,05,28,15,36,23.80
2017,05,28,15,37,23.70
2017,05,28,15,38,23.80
2017,05,28,15,39,23.90
2017,05,28,15,40,24.00
2017,05,28,15,41,24.20
2017,05,28,15,42,24.30
2017,05,28,15,43,24.30
2017,05,28,15,44,24.40
2017,05,28,15,45,24.50
2017,05,28,15,46,24.60
2017,05,28,15,47,24.40
2017,05,28,15,48,24.30
2017,05,28,15,49,24.30
2017,05,28,15,50,24.20
2017,05,28,15,51,24.30
2017,05,28,15,52,24.30
2017,05,28,15,53,24.40
2017,05,28,15,54,24.50
2017,05,28,15,55,24.60
2017,05,28,15,56,24.60
2017,05,28,15,57,24.60
2017,05,28,15,58,24.70
2017,05,28,15,59,24.70
2017,05,28,16,00,24.60
2017,05,28,16,01,24.60
2017,05,28,16,02,24.50
2017,05,28,16,03,24.50
2017,05,28,16,04,24.30
2017,05,28,16,05,24.30
2017,05,28,16,06,24.20
2017,05,28,16,07,24.20
2017,05,28,16,08,24.20
2017,05,28,16,09,24.30
2017,05,28,16,10,24.40
2017,05,28,16,11,24.40
2017,05,28,16,12,24.50
2017,05,28,16,13,24.40
2017,05,28,16,14,24.50
2017,05,28,16,15,24.50
2017,05,28,16,16,24.50
2017,05,28,16,17,24.40
2017,05,28,16,18,24.40
2017,05,28,16,19,24.30
2017,05,28,16,20,24.30
2017,05,28,16,21,24.30
2017,05,28,16,22,24.30
2017,05,28,16,23,24.30
2017,05,28,16,24,24.30
2017,05,28,16,25,24.40
2017,05,28,16,26,24.40
2017,05,28,16,27,24.50
2017,05,28,16,28,24.60
2017,05,28,16,29,24.80
2017,05,28,16,30,24.80
2017,05,28,16,31,24.90
2017,05,28,16,32,24.90
2017,05,28,16,33,24.90
2017,05,28,16,34,24.90
2017,05,28,16,35,24.80
2017,05,28,16,36,24.80
2017,05,28,16,37,24.80
2017,05,28,16,38,24.90
2017,05,28,16,39,25.00
2017,05,28,16,40,25.00
2017,05,28,16,41,25.10
2017,05,28,16,42,25.10
2017,05,28,16,43,25.10
2017,05,28,16,44,25.00
2017,05,28,16,45,25.10
2017,05,28,16,46,25.10
2017,05,28,16,47,25.20
2017,05,28,16,48,25.30
2017,05,28,16,49,25.30
2017,05,28,16,50,25.30
2017,05,28,16,51,25.30
2017,05,28,16,52,25.30
2017,05,28,16,53,25.30
2017,05,28,16,54,25.40
2017,05,28,16,55,25.40
2017,05,28,16,56,25.50
2017,05,28,16,57,25.50
2017,05,28,16,58,25.50
2017,05,28,16,59,25.50
2017,05,28,17,00,25.50
2017,05,28,17,01,25.60
2017,05,28,17,02,25.70
2017,05,28,17,03,25.70
2017,05,28,17,04,25.70
2017,05,28,17,05,25.70
2017,05,28,17,06,25.60
2017,05,28,17,07,25.50
2017,05,28,17,08,25.40
2017,05,28,17,09,25.30
2017,05,28,17,10,25.30
2017,05,28,17,11,25.40
2017,05,28,17,12,25.40
2017,05,28,17,13,25.50
2017,05,28,17,14,25.50
2017,05,28,17,15,25.60
2017,05,28,17,16,25.70
2017,05,28,17,17,25.70
2017,05,28,17,18,25.60
2017,05,28,17,19,25.60